Location: Bühlhof
(48.7849°N, 8.6361°E)
Time: 06:23:16
(UTC+00:00)

NOSS 3-1 (C) - Pass Details

Date: 19 January 2026
Orbit: 618 x 1583 km, 63.4° (Epoch: 10 January)

Event Time Altitude Azimuth Distance (km) Brightness Sun altitude
Rises 16:23:07 0° 314° (NW) 3,509 6.7 -3.8°
Reaches altitude 10° 16:25:40 10° 324° (NW) 2,701 6.0 -4.2°
Maximum altitude 16:31:31 35° 29° (NNE) 1,743 4.5 -5.0°
Drops below altitude 10° 16:38:43 10° 93° (E) 3,342 5.7 -6.1°
Sets 16:42:12 0° 102° (ESE) 4,454 6.4 -6.6°
